Simultaneous Nadir Overpasses (SNOs) Predictions

Prediction of SNOs between GOES-15 and METOP-C Satellite Orbit:

Table of predicted SNOs for the next 14.0 days since TLE Epoch: 2/1/2020
Index Date Time (GOES-15) GOES-15 Lat,Lon METOP-C Lat,Lon Distance(km) Time Diff (sec)
1 02/01/2020 06:08:58 -0.01,-128.23 -0.34,-129.74 171.71 80
2 02/02/2020 05:50:46 -0.01,-128.21 0.77,-124.69 400.27 80
3 02/03/2020 18:09:20 0.01,-128.15 0.23,-129.18 116.78 80
4 02/04/2020 17:45:48 0.00,-128.12 -0.86,-124.13 454.54 80
5 02/06/2020 06:04:30 -0.01,-128.09 -0.16,-128.64 64.29 80
6 02/08/2020 18:04:53 0.00,-127.98 0.02,-128.09 11.67 80
7 02/11/2020 06:02:44 -0.01,-127.90 0.07,-127.56 39.39 80
8 02/12/2020 18:21:17 0.01,-127.83 0.96,-132.04 479.29 80
9 02/13/2020 17:57:47 0.01,-127.79 -0.20,-127.00 91.18 80




NCC Satellite Simultaneous Nadir Overpasses (SNOs) Prediction Service
